Voltar ao catálogo

STARLINK-35331

AtivoComunicaçõesVLEO
NORAD 66468·PAYLOAD·🇺🇸 United States

Lançado Nov 15, 2025 de Cape Canaveral Space Force Station

Loading…

Próximas Passagens (próximas 24 horas)

TLE

AtualizadoSource: CelesTrak SupGP

Época: Sep 14, 2026, 21:36 UTC

1 66468C 25262N   26257.90048611 -.00017034  00000+0 -61775-3 0  2570
2 66468  43.0029 307.9448 0001558 278.4867 304.2032 15.27545654    15

Acompanhe STARLINK-35331 em tempo real com AllMySat

Download on the App Store